Afonsos, Brazil

5:50 AM BRT on July 06, 2015 (GMT -0300)
Afonsos | | Change Station
CLOSE
Current Station
Airport
Location: Afonsos,
Elevation: 112 ft
Nearby Weather Stations

Elev 112 ft 22.88 °S, 43.38 °W | Updated 50 minutes ago

Mostly Cloudy
Mostly Cloudy
61 °F
Feels Like 61 °F
N
2
Wind Variable Wind from SSW

Today
High -- | Low -- °F
--% Chance of Precip.
Yesterday
High -- | Low -- °F
Precip. -- in
6:34 AM 5:21 PM
Waning Gibbous, 77% visible
Pressure 30.21 in
Visibility 3.7 miles
Clouds Scattered Clouds 2500 ft
Mostly Cloudy 8000 ft
Dew Point 59 °F
Humidity 94%
Rainfall 0.00 in
Snow Depth Not available.
UV 0 out of 12
Pollen Not available.
Air Quality Not available.
Flu Activity Not available.
METAR SBAF 060800Z 21002KT 6000 SCT025 BKN080 16/15 Q1023

More Conditions Fewer Conditions

Pressure 30.21 in
Visibility 3.7 miles
Clouds Scattered Clouds 2500 ft
Mostly Cloudy 8000 ft
Dew Point 59 °F
Humidity 94%
Rainfall 0.00 in
Snow Depth Not available.
UV 0 out of 12
Pollen Not available.
Air Quality Not available.
Flu Activity Not available.
METAR SBAF 060800Z 21002KT 6000 SCT025 BKN080 16/15 Q1023

More Conditions Fewer Conditions

10-Day Weather Forecast

×

Almanac

Astronomy

Jul. 06, 2015 Rise Set
Actual Time
Civil Twilight
Nautical Twilight
Astronomical Twilight
Moon
Length of Visible Light
Length of Day
Tomorrow will be .
, % of the Moon is Illuminated

Today's Extremes

Country Highs Country Lows

Community

WunderPhotos

Upload Photos

1,835,519 photos uploaded!

WunderBlogs® & News

Nearby

Air Quality

  Air Quality AQ Index Pollutant
Not available.

Snow Depth

Station Depth Elevation

Earthquake Activity

City Distance Mag. Time & Date
Minimum magnitude displayed is 2.5.

Coastal Water Temperatures

Place Temperature

Stations

Nearby Weather Stations

Station Location Temp. Windchill Dew Point Humidity Wind Precip. Elev Updated Type